Zurück zum Katalog

NOAA 17 DEB

AktivPO
NORAD 48744·DEBRIS·🇺🇸 United States

Gestartet Jun 24, 2002 von Vandenberg Space Force Base

Loading…

Nächste Überflüge (nächste 24 Stunden)

TLE

AktuellSource: Space-Track

Epoche: Sep 14, 2026, 07:17 UTC

1 48744U 02032CD  26257.30356049  .00003038  00000-0  80098-3 0  9998
2 48744  98.8955 282.6247 0011751 335.2648  24.7980 14.49721498286544

Verfolge NOAA 17 DEB in Echtzeit mit AllMySat

Download on the App Store